Takotna, AK

4:59 PM AKDT on August 30, 2016 (GMT -0800)
Tatalina

Weather History for PATL - February, 2013

Change the Weather History Date:

Friday, February 1, 2013

  Actual Average Record
Temperature  
Mean Temperature 9 °F -  
Max Temperature 15 °F 6 °F 45 °F (2007)
Min Temperature 3 °F -1 °F -43 °F (1999)
Degree Days  
Heating Degree Days 56    
Moisture  
Dew Point 7 °F    
Average Humidity 90    
Maximum Humidity 100    
Minimum Humidity 82    
Precipitation  
Precipitation 0.00 in - - ()
Sea Level Pressure  
Sea Level Pressure 30.01 in    
Wind  
Wind Speed 5 mph (NE)    
Max Wind Speed 12 mph    
Max Gust Speed 21 mph    
Visibility 10 miles    
Events Snow    
Averages and records for this station are not official NWS values.
T = Trace of Precipitation, MM = Missing Value Source: NWS Daily Summary

Daily Weather History Graph

Daily Weather History Graph

Search for Another Location

Airport or City:

Trip Planner

Search our weather history database for the weather conditions in past years. The results will help you decide how hot, cold, wet, or windy it might be!

Date:

Astronomy

Feb. 01, 2013 Rise Set
Actual Time 9:53 AM AKST 5:22 PM AKST
Civil Twilight 9:00 AM AKST 6:15 PM AKST
Nautical Twilight 8:04 AM AKST 7:11 PM AKST
Astronomical Twilight 7:11 AM AKST 8:05 PM AKST
Moon 12:39 AM AKST (2/1) 10:20 AM AKST (2/1)
Length of Visible Light 9h 15m
Length of Day
7h 28m
Waning Gibbous, 69% of the Moon is Illuminated
Feb 1
Waning Gibbous
Feb 3
Last Quarter
Feb 9
New
Feb 17
First Quarter
Feb 25
Full

Hourly Weather History & Observations

Time (AKST) Temp. Windchill Dew Point Humidity Pressure Visibility Wind Dir Wind Speed Gust Speed Precip Events Conditions
12:55 AM 7.3 °F 0.5 °F 5.0 °F 90% 30.17 in 10.0 mi NE 3.5 mph - N/A   Clear
1:55 AM 6.6 °F -0.3 °F 5.5 °F 95% 30.17 in 10.0 mi NE 3.5 mph - N/A   Clear
3:48 AM 5.0 °F -4.1 °F 3.2 °F 92% 30.15 in 10.0 mi East 4.6 mph - N/A Snow Light Snow Showers
3:55 AM 4.6 °F -4.5 °F 1.6 °F 87% 30.14 in 10.0 mi East 4.6 mph - N/A   Clear
4:28 AM 5.0 °F -2.1 °F 3.2 °F 92% 30.14 in 10.0 mi ENE 3.5 mph - N/A Snow Light Snow Showers
4:48 AM 3.2 °F -6.2 °F 1.4 °F 92% 30.14 in 10.0 mi ENE 4.6 mph - N/A   Clear
4:55 AM 3.7 °F -7.1 °F 2.1 °F 93% 30.14 in 10.0 mi NE 5.8 mph - N/A   Clear
5:55 AM 3.2 °F -6.2 °F 1.6 °F 93% 30.12 in 10.0 mi ENE 4.6 mph - N/A   Clear
6:55 AM 6.3 °F -5.4 °F 5.0 °F 95% 30.11 in 10.0 mi NE 6.9 mph - N/A   Clear
7:55 AM 7.5 °F -1.1 °F 5.5 °F 92% 30.10 in 10.0 mi ENE 4.6 mph - N/A   Clear
8:55 AM 5.2 °F -5.4 °F 2.7 °F 89% 30.08 in 10.0 mi ENE 5.8 mph - N/A   Clear
9:55 AM 3.9 °F - 0.3 °F 85% 30.09 in 10.0 mi Variable 2.3 mph - N/A   Clear
10:55 AM 5.4 °F -6.5 °F 4.1 °F 95% 30.07 in 10.0 mi NE 6.9 mph - N/A   Clear
11:28 AM 8.6 °F -3.7 °F 8.6 °F 100% 30.05 in 10.0 mi NE 8.1 mph 16.1 mph N/A Snow Light Snow
11:55 AM 11.7 °F 0.0 °F 10.6 °F 95% 30.03 in 10.0 mi NE 8.1 mph - N/A Snow Light Snow Showers
12:28 PM 6.8 °F -4.8 °F 3.2 °F 85% 30.03 in 10.0 mi Variable 6.9 mph - N/A   Clear
12:55 PM 6.4 °F -6.3 °F 4.6 °F 92% 30.02 in 10.0 mi ENE 8.1 mph - N/A   Clear
1:28 PM 12.2 °F -1.0 °F 12.2 °F 100% 30.00 in 10.0 mi NNE 10.4 mph 17.3 mph N/A Snow Light Snow Showers
1:55 PM 13.8 °F 0.2 °F 12.0 °F 93% 29.98 in 10.0 mi NE 11.5 mph 20.7 mph N/A Snow Light Snow Showers
2:55 PM 15.1 °F 2.5 °F 10.4 °F 82% 29.94 in 10.0 mi NNE 10.4 mph 20.7 mph N/A Snow Light Snow Showers
3:28 PM 10.4 °F -0.4 °F 8.6 °F 92% 29.95 in 10.0 mi NE 6.9 mph - N/A   Clear
3:55 PM 8.6 °F -1.3 °F 6.6 °F 92% 29.96 in 10.0 mi East 5.8 mph - N/A   Clear
4:55 PM 14.9 °F 3.1 °F 11.1 °F 85% 29.91 in 10.0 mi NNE 9.2 mph 15.0 mph N/A   Partly Cloudy
5:55 PM 13.3 °F 3.0 °F 10.4 °F 88% 29.90 in 10.0 mi NE 6.9 mph 13.8 mph N/A   Partly Cloudy
6:55 PM 12.4 °F 3.1 °F 9.3 °F 88% 29.87 in 10.0 mi NE 5.8 mph - N/A   Partly Cloudy
7:55 PM 10.9 °F 1.4 °F 7.9 °F 87% 29.86 in 10.0 mi NE 5.8 mph - N/A   Mostly Cloudy
8:55 PM 10.9 °F 1.4 °F 7.7 °F 87% 29.83 in 10.0 mi NE 5.8 mph - N/A   Mostly Cloudy
9:55 PM 12.7 °F 3.6 °F 8.8 °F 84% 29.81 in 10.0 mi NNE 5.8 mph - N/A   Mostly Cloudy
10:55 PM 14.0 °F 5.1 °F 10.8 °F 87% 29.79 in 10.0 mi NE 5.8 mph - N/A   Mostly Cloudy
11:55 PM 14.5 °F 7.1 °F 11.3 °F 87% 29.77 in 10.0 mi Variable 4.6 mph - N/A   Mostly Cloudy